DW6399 Weather Reports


time (UTC)temp
C
wind
direction
speed
KPH
gust
KPH
rain 1hr
cm
rain 24hr
cm
rain mn
cm
humidity
%
barometer
mb
20260510144504 15 164 16.1 32.2 0.00 0.00 0.00 34 1009.8
20260510143604 15 157 14.5 24.1 0.00 0.00 0.00 35 1009.9
20260510142704 15 153 17.7 33.8 0.00 0.00 0.00 33 1010.0
20260510141806 15 160 14.5 33.8 0.00 0.00 0.00 33 1010.1
20260510140907 15 162 14.5 35.4 0.00 0.00 0.00 34 1010.2
20260510140004 15 168 14.5 33.8 0.00 0.00 0.00 34 1010.3
20260510135404 15 165 14.5 35.4 0.00 0.00 0.00 34 1010.4
20260510134505 15 159 17.7 35.4 0.00 0.00 0.00 32 1010.4
20260510133604 15 156 16.1 27.4 0.00 0.00 0.00 35 1010.5
20260510132704 16 158 17.7 43.5 0.00 0.00 0.00 33 1010.6
20260510131804 15 170 12.9 29.0 0.00 0.00 0.00 35 1010.8
20260510130925 15 165 14.5 30.6 0.00 0.00 0.00 34 1011.0
20260510130004 15 162 16.1 32.2 0.00 0.00 0.00 34 1011.0
20260510125404 15 153 16.1 41.8 0.00 0.00 0.00 35 1011.0
20260510124505 15 159 17.7 35.4 0.00 0.00 0.00 37 1011.3
20260510123604 15 156 17.7 35.4 0.00 0.00 0.00 36 1011.2
20260510122728 15 163 19.3 41.8 0.00 0.00 0.00 34 1011.5
20260510121804 15 167 14.5 33.8 0.00 0.00 0.00 36 1011.4
20260510120904 15 155 19.3 32.2 0.00 0.00 0.00 37 1011.6
20260510120004 15 163 14.5 33.8 0.00 0.00 0.00 38 1011.7
20260510115404 15 170 11.3 33.8 0.00 0.00 0.00 38 1011.9
20260510114504 15 167 12.9 25.7 0.00 0.00 0.00 38 1012.0
20260510113625 15 173 11.3 25.7 0.00 0.00 0.00 37 1012.1
20260510112704 14 172 12.9 33.8 0.00 0.00 0.00 38 1012.2
20260510111804 14 157 16.1 33.8 0.00 0.00 0.00 38 1012.4
20260510110904 13 160 20.9 37.0 0.00 0.00 0.00 38 1012.6
20260510110005 14 160 19.3 41.8 0.00 0.00 0.00 36 1012.6
20260510105404 14 161 17.7 33.8 0.00 0.00 0.00 38 1012.6
20260510104504 13 160 22.5 37.0 0.00 0.00 0.00 37 1013.0
20260510103604 13 162 20.9 35.4 0.00 0.00 0.00 37 1013.1
20260510102704 13 159 19.3 40.2 0.00 0.00 0.00 38 1013.1
20260510101804 13 165 22.5 40.2 0.00 0.00 0.00 37 1013.1
20260510100904 13 165 22.5 43.5 0.00 0.00 0.00 35 1013.4
20260510100004 13 159 17.7 43.5 0.00 0.00 0.00 34 1013.3
20260510095404 13 156 17.7 35.4 0.00 0.00 0.00 36 1013.5
20260510094504 14 158 17.7 35.4 0.00 0.00 0.00 33 1013.6
20260510093604 14 163 16.1 27.4 0.00 0.00 0.00 34 1013.8
20260510092725 13 162 14.5 29.0 0.00 0.00 0.00 37 1013.8
20260510091804 13 162 16.1 30.6 0.00 0.00 0.00 38 1013.9
20260510090904 13 154 17.7 35.4 0.00 0.00 0.00 35 1014.0
20260510090004 13 165 17.7 33.8 0.00 0.00 0.00 37 1014.1
20260510085404 13 159 20.9 41.8 0.00 0.00 0.00 37 1014.2
20260510084525 13 142 20.9 37.0 0.00 0.00 0.00 38 1014.2
20260510083604 13 155 19.3 37.0 0.00 0.00 0.00 38 1014.4
20260510082704 13 158 16.1 30.6 0.00 0.00 0.00 39 1014.5
20260510081804 12 152 20.9 38.6 0.00 0.00 0.00 39 1014.7
20260510080904 12 157 17.7 30.6 0.00 0.00 0.00 40 1014.9
20260510080004 12 158 16.1 27.4 0.00 0.00 0.00 41 1015.0
20260510075425 12 171 17.7 29.0 0.00 0.00 0.00 42 1015.2
20260510074525 12 157 16.1 29.0 0.00 0.00 0.00 42 1015.4
20260510073604 11 159 14.5 27.4 0.00 0.00 0.00 44 1015.4
20260510072725 11 159 14.5 27.4 0.00 0.00 0.00 44 1015.6
20260510071804 11 159 14.5 24.1 0.00 0.00 0.00 45 1015.7
20260510070925 11 154 16.1 29.0 0.00 0.00 0.00 44 1015.8
20260510070004 11 162 14.5 29.0 0.00 0.00 0.00 44 1016.0
20260510065404 11 155 17.7 30.6 0.00 0.00 0.00 47 1016.0
20260510064504 11 158 14.5 30.6 0.00 0.00 0.00 49 1016.1
20260510063604 11 157 11.3 24.1 0.00 0.00 0.00 51 1016.3
20260510062725 10 148 12.9 19.3 0.00 0.00 0.00 55 1016.4
20260510061804 10 156 11.3 19.3 0.00 0.00 0.00 54 1016.5
20260510060904 10 165 9.7 17.7 0.00 0.00 0.00 56 1016.5
20260510060004 9 148 6.4 17.7 0.00 0.00 0.00 59 1016.7
20260510055404 8 136 4.8 11.3 0.00 0.00 0.00 60 1016.7
20260510054504 8 153 8.0 12.9 0.00 0.00 0.00 59 1016.8
20260510053604 8 156 8.0 14.5 0.00 0.00 0.00 61 1016.8
20260510052704 7 147 6.4 11.3 0.00 0.00 0.00 63 1017.0
20260510051804 7 153 6.4 9.7 0.00 0.00 0.00 65 1017.0
20260510050904 7 148 4.8 11.3 0.00 0.00 0.00 65 1017.1
20260510050004 7 153 4.8 11.3 0.00 0.00 0.00 65 1017.1
20260510045425 7 155 4.8 8.0 0.00 0.00 0.00 64 1017.3
20260510044504 6 181 4.8 9.7 0.00 0.00 0.00 66 1017.1
20260510043604 5 202 1.6 3.2 0.00 0.00 0.00 68 1017.2
20260510042704 5 202 1.6 4.8 0.00 0.00 0.00 69 1017.5
20260510041804 5 202 0.0 3.2 0.00 0.00 0.00 69 1017.6
20260510040904 5 202 1.6 4.8 0.00 0.00 0.00 69 1017.7
20260510040004 4 202 3.2 4.8 0.00 0.00 0.00 69 1017.8
20260510035404 4 202 1.6 4.8 0.00 0.00 0.00 69 1017.9
20260510034504 3 202 1.6 4.8 0.00 0.00 0.00 71 1017.8
20260510033604 3 202 1.6 4.8 0.00 0.00 0.00 72 1017.7
20260510032704 3 202 3.2 4.8 0.00 0.00 0.00 72 1017.9
20260510031804 2 202 1.6 4.8 0.00 0.00 0.00 72 1017.9
20260510030904 2 202 3.2 4.8 0.00 0.00 0.00 73 1018.0
20260510030004 2 202 1.6 4.8 0.00 0.00 0.00 72 1018.1
20260510025404 2 202 1.6 4.8 0.00 0.00 0.00 73 1018.1
20260510024504 2 202 0.0 3.2 0.00 0.00 0.00 73 1018.2
20260510023625 2 202 1.6 4.8 0.00 0.00 0.00 72 1018.2
20260510022725 2 202 1.6 3.2 0.00 0.00 0.00 72 1018.3
20260510021804 2 202 1.6 4.8 0.00 0.00 0.00 72 1018.2
20260510020904 1 202 1.6 6.4 0.00 0.00 0.00 73 1018.3
20260510020004 1 200 3.2 6.4 0.00 0.00 0.00 74 1018.4
20260510015425 1 205 1.6 6.4 0.00 0.00 0.00 72 1018.4
20260510014504 1 205 1.6 4.8 0.00 0.00 0.00 73 1018.4
20260510013604 1 176 1.6 6.4 0.00 0.00 0.00 73 1018.5
20260510012725 1 146 1.6 6.4 0.00 0.00 0.00 73 1018.5
20260510011804 1 146 1.6 6.4 0.00 0.00 0.00 72 1018.6
20260510010904 1 144 0.0 3.2 0.00 0.00 0.00 71 1018.6
20260510010004 2 144 0.0 3.2 0.00 0.00 0.00 70 1018.7
20260510005404 2 144 1.6 4.8 0.00 0.00 0.00 69 1018.8
20260510004504 2 144 1.6 8.0 0.00 0.00 0.00 67 1018.8
20260510003604 2 147 3.2 4.8 0.00 0.00 0.00 66 1018.8
20260510002704 2 147 1.6 4.8 0.00 0.00 0.00 66 1018.8
20260510001804 2 150 3.2 4.8 0.00 0.00 0.00 66 1018.8
20260510000904 2 157 3.2 9.7 0.00 0.00 0.00 65 1018.9
20260510000004 2 157 3.2 8.0 0.00 0.00 0.00 66 1018.9
20260509235404 2 153 3.2 8.0 0.00 0.00 0.00 68 1018.9
20260509234504 2 116 1.6 6.4 0.00 0.00 0.00 67 1019.1
20260509233604 2 331 1.6 4.8 0.00 0.00 0.00 68 1019.2
20260509232704 2 321 1.6 3.2 0.00 0.00 0.00 69 1019.3
20260509231804 2 321 1.6 4.8 0.00 0.00 0.00 69 1019.4
20260509230904 1 321 1.6 6.4 0.00 0.00 0.00 69 1019.5
20260509230025 1 320 0.0 3.2 0.00 0.00 0.00 70 1019.6
20260509225404 1 0 0.0 0.0 0.00 0.00 0.00 70 1019.6
20260509224504 2 0 0.0 0.0 0.00 0.00 0.00 68 1019.8
20260509223604 2 0 0.0 0.0 0.00 0.00 0.00 67 1019.8
20260509222704 2 0 0.0 0.0 0.00 0.00 0.00 67 1019.8
20260509221804 2 0 0.0 0.0 0.00 0.00 0.00 67 1019.9
20260509220904 3 0 0.0 0.0 0.00 0.00 0.00 69 1019.9
20260509220004 3 0 0.0 0.0 0.00 0.00 0.00 65 1020.0
20260509215404 3 0 0.0 0.0 0.00 0.00 0.00 63 1020.1
20260509214504 3 0 0.0 0.0 0.00 0.00 0.00 64 1020.2
20260509213604 3 0 0.0 0.0 0.00 0.00 0.00 64 1020.3
20260509212704 3 0 0.0 0.0 0.00 0.00 0.00 63 1020.3
20260509211804 3 0 0.0 0.0 0.00 0.00 0.00 63 1020.2
20260509210904 3 0 0.0 0.0 0.00 0.00 0.00 64 1020.4
20260509210004 3 0 0.0 0.0 0.00 0.00 0.00 70 1020.3
20260509205425 3 0 0.0 0.0 0.00 0.00 0.00 66 1020.3
20260509204504 3 0 0.0 0.0 0.00 0.00 0.00 65 1020.4
20260509203604 3 0 0.0 0.0 0.00 0.00 0.00 63 1020.4
20260509202704 3 0 0.0 0.0 0.00 0.00 0.00 64 1020.3
20260509201804 4 0 0.0 0.0 0.00 0.00 0.00 65 1020.4
20260509200904 5 321 0.0 3.2 0.00 0.00 0.00 63 1020.4
20260509200025 5 320 1.6 3.2 0.00 0.00 0.00 60 1020.4
20260509195404 4 321 0.0 3.2 0.00 0.00 0.00 61 1020.4
20260509194504 4 0 0.0 0.0 0.00 0.00 0.00 62 1020.4
20260509193604 5 0 0.0 0.0 0.00 0.00 0.00 62 1020.4
20260509192704 5 321 0.0 1.6 0.00 0.00 0.00 62 1020.4
20260509191804 5 320 0.0 1.6 0.00 0.00 0.00 60 1020.4
20260509190925 6 321 3.2 6.4 0.00 0.00 0.00 59 1020.3
20260509190004 6 320 1.6 4.8 0.00 0.00 0.00 53 1020.3
20260509185404 6 320 0.0 3.2 0.00 0.00 0.00 54 1020.4
20260509184525 7 321 0.0 3.2 0.00 0.00 0.00 54 1020.4
20260509183604 8 321 0.0 3.2 0.00 0.00 0.00 51 1020.4
20260509182725 8 0 0.0 0.0 0.00 0.00 0.00 47 1020.4
20260509181804 10 321 1.6 4.8 0.00 0.00 0.00 46 1020.3
20260509180904 10 321 4.8 8.0 0.00 0.00 0.00 41 1020.2
20260509180004 11 319 8.0 16.1 0.00 0.00 0.00 39 1020.2
20260509175404 11 326 12.9 19.3 0.00 0.00 0.00 38 1020.2
20260509174504 11 324 11.3 19.3 0.00 0.00 0.00 37 1020.0
20260509173603 12 322 14.5 22.5 0.00 0.00 0.00 37 1020.1
20260509172725 12 317 11.3 22.5 0.00 0.00 0.00 38 1020.1
20260509171825 12 316 11.3 17.7 0.00 0.00 0.00 37 1020.2
20260509170904 12 319 11.3 17.7 0.00 0.00 0.00 38 1020.2
20260509170025 12 314 11.3 17.7 0.00 0.00 0.00 38 1020.2
20260509165404 12 306 11.3 20.9 0.00 0.00 0.00 39 1020.2
20260509164504 13 308 8.0 19.3 0.00 0.00 0.00 39 1020.2
20260509163604 13 317 9.7 17.7 0.00 0.00 0.00 39 1020.2
20260509162704 14 289 8.0 16.1 0.00 0.00 0.00 36 1020.3
20260509161804 15 159 9.7 17.7 0.00 0.00 0.00 36 1020.1
20260509160904 15 172 8.0 24.1 0.00 0.00 0.00 36 1020.2
20260509160004 16 174 9.7 22.5 0.00 0.00 0.00 34 1020.3
20260509155404 16 169 9.7 22.5 0.00 0.00 0.00 34 1020.3
20260509154504 16 174 6.4 22.5 0.00 0.00 0.00 34 1020.5
20260509153625 16 170 8.0 22.5 0.00 0.00 0.00 34 1020.5
20260509152725 16 157 8.0 22.5 0.00 0.00 0.00 36 1020.6
20260509151804 15 171 6.4 12.9 0.00 0.00 0.00 38 1020.8
20260509150903 15 172 8.0 16.1 0.00 0.00 0.00 37 1021.0
20260509150004 15 174 4.8 16.1 0.00 0.00 0.00 37 1021.1
20260509145404 15 218 3.2 6.4 0.00 0.00 0.00 37 1021.1